Location: Unspecified
(0.0000°N, 0.0000°E)
Time: 11:19:49
(UTC+00:00)

Transit 2A Rocket - Pass Details

Date: 28 November 2019
Orbit: 594 x 909 km, 66.7° (Epoch: 13 December)

Event Time Altitude Azimuth Distance (km) Brightness Sun altitude
Rises 05:10:01 0° 359° (N) 3,004 7.9 -8.8°
Reaches altitude 10° 05:12:28 10° 10° (N) 2,142 7.2 -8.2°
Maximum altitude 05:16:45 31° 72° (ENE) 1,284 6.8 -7.2°
Drops below altitude 10° 05:21:23 10° 132° (SE) 2,335 8.9 -6.1°
Sets 05:24:10 0° 142° (SE) 3,322 9.4 -5.5°
